Bellingham, WA
on Saturday, February 16, 2013

Saturday
Previous Day Next Day
Daily Summary
 ActualAverageRecord
Temperature
Mean Temperature °F / °C 41°F / 5°C  
Max Temperature 55°F / 13°C 48°F / 9°C 59°F / 15°C (1996)
Min Temperature 44°F / 7°C 33°F / 1°C 15°F / -9°C (1956)
Degree Days
Heating Degree Days 16 24  
Month to date heating degree days 395  
Cooling Degree Days 0 0  
Month to date cooling degree days 0  
Year to date cooling degree days 0  
Moisture
Dew Point 41°F / 5°C   
Average Humidity 73    
Maximum Humidity 83    
Minimum Humidity 51    
Precipitation
Precipitation 0.07 in / 1.78 cm 0.10 in / 2.54 cm 3.21 in / 8.15 cm (1949)
Month to date precipitation 1.78  
Year to date precipitation 6.45  
Wind
Wind Speed 5 mph / 8 km/h   
Max Wind Speed 13 mph / 21 km/h   
Max Gust Speed 20 mph / 32 km/h   
Visibility 9 miles / 15 kilometers   
Events Rain   

Key: T is trace of precipitation, MM is missing value
Source: NWS Daily Summary
Time(PST)TemperatureDew PointHumidity Pressure Visibility Wind DirectionWind SpeedGust SpeedPrecipitationEvents Conditions
12:33 AM 44.6°F / 7.0°C 39.2°F / 4.0°C 81% 30.16 in / 1021.2 hPa 8.0 miles / 12.9 kilometers Calm Calm - N/A   Overcast
12:42 AM 46.4°F / 8.0°C 39.2°F / 4.0°C 76% 30.16 in / 1021.2 hPa 9.0 miles / 14.5 kilometers SSE 3.5 mph / 5.6 km/h - N/A   Overcast
12:53 AM 46.0°F / 7.8°C 41.0°F / 5.0°C 83% 30.18 in / 1022.0 hPa 8.0 miles / 12.9 kilometers South 3.5 mph / 5.6 km/h - N/A   Overcast
1:53 AM 48.0°F / 8.9°C 42.1°F / 5.6°C 80% 30.17 in / 1021.6 hPa 10.0 miles / 16.1 kilometers Calm Calm - N/A   Overcast
2:08 AM 48.2°F / 9.0°C 42.8°F / 6.0°C 82% 30.14 in / 1020.5 hPa 10.0 miles / 16.1 kilometers SE 4.6 mph / 7.4 km/h - N/A   Overcast
2:19 AM 48.2°F / 9.0°C 42.8°F / 6.0°C 82% 30.14 in / 1020.5 hPa 10.0 miles / 16.1 kilometers Calm Calm - N/A   Overcast
2:27 AM 48.2°F / 9.0°C 42.8°F / 6.0°C 82% 30.14 in / 1020.5 hPa 9.0 miles / 14.5 kilometers Calm Calm - N/A   Overcast
2:38 AM 48.2°F / 9.0°C 42.8°F / 6.0°C 82% 30.14 in / 1020.5 hPa 8.0 miles / 12.9 kilometers Calm Calm - N/A   Overcast
2:53 AM 48.0°F / 8.9°C 43.0°F / 6.1°C 83% 30.16 in / 1021.1 hPa 10.0 miles / 16.1 kilometers Calm Calm - 0.00 in / 0.0 cm Rain Light Rain
3:42 AM 48.2°F / 9.0°C 42.8°F / 6.0°C 82% 30.12 in / 1019.9 hPa 4.0 miles / 6.4 kilometers Variable 4.6 mph / 7.4 km/h - 0.00 in / 0.0 cm Rain Light Rain
3:53 AM 48.0°F / 8.9°C 43.0°F / 6.1°C 83% 30.14 in / 1020.7 hPa 5.0 miles / 8.0 kilometers South 4.6 mph / 7.4 km/h - 0.00 in / 0.0 cm Rain Light Rain
4:53 AM 48.0°F / 8.9°C 43.0°F / 6.1°C 83% 30.13 in / 1020.3 hPa 6.0 miles / 9.7 kilometers South 11.5 mph / 18.5 km/h - 0.05 in / 1.3 cm Rain Light Rain
5:44 AM 48.2°F / 9.0°C 42.8°F / 6.0°C 82% 30.10 in / 1019.2 hPa 10.0 miles / 16.1 kilometers South 11.5 mph / 18.5 km/h - 0.01 in / 0.3 cm Rain Light Rain
5:53 AM 48.9°F / 9.4°C 43.0°F / 6.1°C 80% 30.12 in / 1020.0 hPa 10.0 miles / 16.1 kilometers South 11.5 mph / 18.5 km/h 19.6 mph / 31.5 km/h 0.01 in / 0.3 cm   Overcast
6:53 AM 48.9°F / 9.4°C 43.0°F / 6.1°C 80% 30.13 in / 1020.1 hPa 9.0 miles / 14.5 kilometers SSE 11.5 mph / 18.5 km/h 18.4 mph / 29.6 km/h N/A   Overcast
7:05 AM 48.2°F / 9.0°C 42.8°F / 6.0°C 82% 30.10 in / 1019.2 hPa 10.0 miles / 16.1 kilometers South 11.5 mph / 18.5 km/h 16.1 mph / 25.9 km/h N/A   Overcast
7:53 AM 50.0°F / 10.0°C 43.0°F / 6.1°C 77% 30.15 in / 1020.8 hPa 10.0 miles / 16.1 kilometers South 9.2 mph / 14.8 km/h - N/A   Overcast
8:53 AM 50.0°F / 10.0°C 43.0°F / 6.1°C 77% 30.14 in / 1020.7 hPa 10.0 miles / 16.1 kilometers SSE 10.4 mph / 16.7 km/h - N/A   Overcast
9:28 AM 50.0°F / 10.0°C 42.8°F / 6.0°C 76% 30.12 in / 1019.9 hPa 10.0 miles / 16.1 kilometers SSE 10.4 mph / 16.7 km/h - N/A   Overcast
9:53 AM 50.0°F / 10.0°C 43.0°F / 6.1°C 77% 30.14 in / 1020.6 hPa 10.0 miles / 16.1 kilometers SSE 12.7 mph / 20.4 km/h - N/A   Mostly Cloudy
10:00 AM 50.0°F / 10.0°C 42.8°F / 6.0°C 76% 30.11 in / 1019.5 hPa 10.0 miles / 16.1 kilometers SSE 9.2 mph / 14.8 km/h - N/A   Mostly Cloudy
10:53 AM 53.1°F / 11.7°C 43.0°F / 6.1°C 69% 30.14 in / 1020.5 hPa 10.0 miles / 16.1 kilometers SSE 10.4 mph / 16.7 km/h 17.3 mph / 27.8 km/h N/A   Scattered Clouds
11:53 AM 55.0°F / 12.8°C 41.0°F / 5.0°C 59% 30.14 in / 1020.6 hPa 10.0 miles / 16.1 kilometers SSW 8.1 mph / 13.0 km/h - N/A   Scattered Clouds
12:53 PM 55.0°F / 12.8°C 37.0°F / 2.8°C 51% 30.12 in / 1019.9 hPa 10.0 miles / 16.1 kilometers South 8.1 mph / 13.0 km/h - N/A   Scattered Clouds
1:53 PM 55.9°F / 13.3°C 37.9°F / 3.3°C 51% 30.11 in / 1019.5 hPa 10.0 miles / 16.1 kilometers South 5.8 mph / 9.3 km/h - N/A   Scattered Clouds
2:53 PM 53.1°F / 11.7°C 39.0°F / 3.9°C 59% 30.11 in / 1019.5 hPa 10.0 miles / 16.1 kilometers South 6.9 mph / 11.1 km/h - N/A   Mostly Cloudy
3:53 PM 52.0°F / 11.1°C 39.0°F / 3.9°C 61% 30.12 in / 1019.7 hPa 10.0 miles / 16.1 kilometers Variable 4.6 mph / 7.4 km/h - 0.00 in / 0.0 cm Rain Light Rain
4:53 PM 50.0°F / 10.0°C 39.9°F / 4.4°C 68% 30.11 in / 1019.5 hPa 10.0 miles / 16.1 kilometers South 6.9 mph / 11.1 km/h - 0.00 in / 0.0 cm   Overcast
5:53 PM 50.0°F / 10.0°C 39.9°F / 4.4°C 68% 30.11 in / 1019.5 hPa 10.0 miles / 16.1 kilometers SSE 9.2 mph / 14.8 km/h - N/A   Overcast
6:53 PM 50.0°F / 10.0°C 39.9°F / 4.4°C 68% 30.12 in / 1019.9 hPa 10.0 miles / 16.1 kilometers South 3.5 mph / 5.6 km/h - 0.00 in / 0.0 cm   Overcast
7:53 PM 50.0°F / 10.0°C 39.0°F / 3.9°C 66% 30.13 in / 1020.2 hPa 10.0 miles / 16.1 kilometers Variable 5.8 mph / 9.3 km/h - 0.01 in / 0.3 cm Rain Light Rain
8:53 PM 50.0°F / 10.0°C 37.9°F / 3.3°C 63% 30.14 in / 1020.7 hPa 10.0 miles / 16.1 kilometers SW 4.6 mph / 7.4 km/h - 0.00 in / 0.0 cm   Overcast
9:53 PM 50.0°F / 10.0°C 37.9°F / 3.3°C 63% 30.15 in / 1021.0 hPa 10.0 miles / 16.1 kilometers Variable 4.6 mph / 7.4 km/h - N/A   Overcast
10:53 PM 48.9°F / 9.4°C 37.9°F / 3.3°C 66% 30.17 in / 1021.6 hPa 10.0 miles / 16.1 kilometers Calm Calm - N/A   Overcast
11:53 PM 48.9°F / 9.4°C 37.9°F / 3.3°C 66% 30.18 in / 1022.0 hPa 10.0 miles / 16.1 kilometers Calm Calm - N/A   Overcast
Moon Phase
Feb. 16 Feb. 17 Feb. 25 Mar. 04 Mar. 11
Sunrise:07:15 AM (PST) Moon Rise:09:54 AM (PST)2/16
Sunset:05:33 PM (PST) Moon Set:12:14 AM (PST)2/16

Copyright © 2014 The Weather Underground, Inc.